Forrest,

4:05 AM AWST on July 24, 2017 (GMT +0800)
Forrest

Weather History for YFRT - March, 2012

Change the Weather History Date:

Wednesday, March 21, 2012

  Actual Average Record
Temperature  
Mean Temperature 65 °F -  
Max Temperature 72 °F - - ()
Min Temperature 58 °F - - ()
Growing Degree Days 15 (Base 50)    
Moisture  
Dew Point 48 °F    
Average Humidity 54    
Maximum Humidity 90    
Minimum Humidity 26    
Precipitation  
Precipitation 0.00 in - - ()
Sea Level Pressure  
Sea Level Pressure 30.05 in    
Wind  
Wind Speed 12 mph ()    
Max Wind Speed 17 mph    
Max Gust Speed 28 mph    
T = Trace of Precipitation, MM = Missing Value Source: Averaged Metar Reports

Daily Weather History Graph

Daily Weather History Graph

Search for Another Location

Airport or City:

Trip Planner

Search our weather history database for the weather conditions in past years. The results will help you decide how hot, cold, wet, or windy it might be!

Date:

Astronomy

Mar. 21, 2012 Rise Set
Actual Time 5:31 AM AWST 5:37 PM AWST
Civil Twilight 5:07 AM AWST 6:01 PM AWST
Nautical Twilight 4:39 AM AWST 6:29 PM AWST
Astronomical Twilight 4:11 AM AWST 6:57 PM AWST
Moon 4:05 AM AWST (3/21) 4:35 PM AWST (3/21)
Length of Visible Light 12h 53m
Length of Day
12h 05m
Waning Crescent, 2% of the Moon is Illuminated
Mar 21
Waning Crescent
Mar 22
New
Mar 31
First Quarter
Apr 7
Full
Apr 13
Last Quarter

Hourly Weather History & Observations

Time (AWST) Temp. Dew Point Humidity Pressure Visibility Wind Dir Wind Speed Gust Speed Precip Events Conditions
12:00 AM 60 °F 58 °F 90% 30.01 in - South 12.7 mph - -  
12:00 AM 60.8 °F 57.2 °F 88% 30.01 in - South 12.7 mph - N/A   Unknown
1:00 AM 60.8 °F 53.6 °F 77% 30.01 in - South 12.7 mph - N/A   Unknown
2:00 AM 61 °F 51 °F 60% 30.01 in - South 11.5 mph - -  
2:00 AM 60.8 °F 50.0 °F 68% 30.01 in - South 11.5 mph - N/A   Unknown
3:00 AM 60 °F 49 °F 58% 30.02 in - South 10.4 mph - -  
3:00 AM 59.0 °F 50.0 °F 72% 30.04 in - South 10.4 mph - N/A   Unknown
4:00 AM 60.8 °F 48.2 °F 63% 30.04 in - South 11.5 mph - N/A   Unknown
5:00 AM 60 °F 47 °F 51% 30.06 in - South 10.4 mph - -  
5:00 AM 59.0 °F 46.4 °F 63% 30.06 in - South 10.4 mph - N/A   Unknown
6:00 AM 60 °F 48 °F 54% 30.07 in - South 5.8 mph - -  
6:00 AM 59.0 °F 48.2 °F 67% 30.06 in - South 5.8 mph - N/A   Unknown
7:00 AM 60.8 °F 48.2 °F 63% 30.09 in - SSE 9.2 mph - N/A   Unknown
8:00 AM 64 °F 46 °F 41% 30.10 in - SE 16.1 mph - -  
8:00 AM 64.4 °F 46.4 °F 52% 30.09 in - SE 16.1 mph - N/A   Unknown
9:00 AM 65 °F 47 °F 42% 30.10 in - ESE 15.0 mph - -  
9:00 AM 64.4 °F 48.2 °F 56% 30.09 in - ESE 15.0 mph - N/A   Unknown
10:00 AM 64.4 °F 46.4 °F 52% 30.09 in - SSE 16.1 mph - N/A   Unknown
11:00 AM 67 °F 45 °F 34% 30.07 in - SE 12.7 mph - -  
11:00 AM 66.2 °F 44.6 °F 46% 30.06 in - SE 12.7 mph - N/A   Unknown
12:00 PM 70 °F 43 °F 26% 30.04 in - SE 13.8 mph - -  
12:00 PM 69.8 °F 42.8 °F 38% 30.04 in - SE 13.8 mph - N/A   Unknown
1:00 PM 71.6 °F 44.6 °F 38% 30.04 in - SE 13.8 mph - N/A   Unknown
2:00 PM 69 °F 46 °F 32% 30.01 in - SE 16.1 mph - -  
2:00 PM 69.8 °F 46.4 °F 43% 30.01 in - SE 16.1 mph - N/A   Unknown
3:00 PM 69 °F 46 °F 32% 30.01 in - SE 16.1 mph - -  
3:00 PM 68.0 °F 46.4 °F 46% 30.01 in - SE 16.1 mph 27.6 mph N/A   Unknown
4:00 PM 66.2 °F 46.4 °F 49% 30.01 in - SSE 16.1 mph - N/A   Unknown
5:00 PM 65 °F 46 °F 39% 30.02 in - SE 16.1 mph - -  
5:00 PM 66.2 °F 46.4 °F 49% 30.04 in - SE 16.1 mph - N/A   Unknown
6:00 PM 64 °F 47 °F 42% 30.05 in - SE 17.3 mph - -  
6:00 PM 64.4 °F 46.4 °F 52% 30.04 in - SE 17.3 mph - N/A   Unknown
7:00 PM 62.6 °F 46.4 °F 55% 30.06 in - SE 16.1 mph - N/A   Unknown
8:00 PM 62 °F 45 °F 43% 30.09 in - SE 12.7 mph - -  
8:00 PM 62.6 °F 44.6 °F 52% 30.09 in - SE 12.7 mph - N/A   Unknown
9:00 PM 60 °F 47 °F 53% 30.10 in - East 12.7 mph - -  
9:00 PM 60.8 °F 48.2 °F 63% 30.09 in - East 12.7 mph - N/A   Unknown
10:00 PM 59.0 °F 50.0 °F 72% 30.09 in - SE 16.1 mph - N/A   Unknown
11:00 PM 58 °F 49 °F 65% 30.07 in - South 6.9 mph - -  
11:00 PM 59.0 °F 50.0 °F 72% 30.06 in - South 6.9 mph - N/A   Unknown